Regional Weather Roundup
Issued by NWS

Home | Current Version | Previous Version | Graphics & Text | Print | Product List | Glossary On
Versions: 1 2 3 4 5 6 7 8 9 10 11 12 13 14 15 16 17 18 19 20 21 22 23 24 25 26 27 28 29 30 31 32 33 34 35 36 37 38 39 40 41 42 43 44 45 46 47 48 49 50
000
ASUS43 KIND 301109
RWRIN

WEATHER ROUNDUP FOR INDIANA
NATIONAL WEATHER SERVICE INDIANAPOLIS IN
700 AM EDT TUE SEP 30 2014

NOTE: "FAIR" INDICATES FEW OR NO CLOUDS BELOW 12,000 FEET WITH NO
SIGNIFICANT WEATHER AND/OR OBSTRUCTIONS TO VISIBILITY.

* - STATION DOES NOT REPORT WEATHER SUCH AS PRECIPITATION OR FOG.

+ - STATION NOT QUALITY CONTROLLED BY THE NATIONAL WEATHER SERVICE.
    USE DATA WITH CAUTION...ESPECIALLY DEWPOINT AND RELATIVE
    HUMIDITY OBSERVATIONS.

INZ001>003-010>013-019-020-301200-
NORTHWEST INDIANA

CITY           SKY/WX    TMP DP  RH WIND       PRES   REMARKS
GARY /AIRPORT/ CLOUDY    54  50  87 N17       30.03S
KNOX *+        CLOUDY    52  47  84 N14       30.01R
LA PORTE +     LGT RAIN  53  52  98 N10G18    30.01S
MICHIGAN CITY+ CLOUDY    52  45  76 N10G16    30.02S
MONTICELLO +   CLOUDY    54  52  92 N8        29.99S
RENSSELAER +   CLOUDY    54  52  94 N13       30.01S
VALPARAISO     CLOUDY    53  48  83 VRB6      30.02R

$$

LMZ046-743>745-301200-
SOUTHERN LAKE MICHIGAN

STATION/POSITION TIME  TEMP WIND        PRES
                       AIR  DIR/SP/G
                 (UTC) (F)  (DEG/KT/KT) (MB)
MICHIGAN CITY    1100   54  350/ 22/ 26   N/A

$$

INZ004-005-014>016-021>024-301200-
NORTH CENTRAL INDIANA

CITY           SKY/WX    TMP DP  RH WIND       PRES   REMARKS
ELKHART        CLOUDY    48  45  87 N8        30.00
LOGANSPORT +   CLOUDY    54  50  87 N10       29.99S
PERU/GRISSOM   CLOUDY    55  55 100 N12       29.98R
ROCHESTER +    CLOUDY    54  50  87 NW10      30.00R
SOUTH BEND     NOT AVBL
WARSAW +       CLOUDY    50  48  93 NW7       29.99R

$$

INZ006>009-017-018-025>027-301200-
NORTHEAST INDIANA

CITY           SKY/WX    TMP DP  RH WIND       PRES   REMARKS
ANGOLA *+      CLOUDY    50  48  93 N7        29.97R
AUBURN +       CLOUDY    54  50  87 NW8       29.96R
FORT WAYNE     CLOUDY    55  53  93 N10       29.96R
HUNTINGTON +   CLOUDY    55  55  99 NW6       29.96R FOG

$$

INZ028-029-035-036-043>045-051>053-301200-
WEST CENTRAL INDIANA

CITY           SKY/WX    TMP DP  RH WIND       PRES   REMARKS
GREENCASTLE +  FOG       55  55 100 N10       29.97R VSB 1
LAFAYETTE      CLOUDY    55  51  86 N10       30.00R
TERRE HAUTE    FOG       58  57  97 N7        29.96S VSB 1/2

$$

INZ030>032-037>040-046>048-054>057-064-065-301200-
CENTRAL INDIANA

CITY           SKY/WX    TMP DP  RH WIND       PRES   REMARKS
CP ATTERBURY + CLEAR     52  50  93 CALM      29.96R
FRANKFORT +    CLOUDY    57  57 100 N10       29.99R
INDIANAPOLIS   CLOUDY    58  57  97 N15       29.96R FOG
-EAGLE CREEK   CLOUDY    58  56  93 N10       29.96R FOG
KOKOMO *+      CLOUDY    55  52  88 NW9       29.99R
MARION +       CLOUDY    56  53  89 N7        29.97R
MT COMFORT *+  CLOUDY    59 N/A N/A N7        29.96R VSB 1/2
SHELBYVILLE    CLEAR     53  49  86 N5        29.95R
ZIONSVILLE +   CLOUDY    57  55  91 N8        29.98R FOG

$$

INZ033-034-041-042-049-050-058-059-301200-
EAST CENTRAL INDIANA

CITY           SKY/WX    TMP DP  RH WIND       PRES   REMARKS
MUNCIE         CLOUDY    58  57  97 NW8       29.96R FOG

$$

INZ060-061-067>069-081>083-085>088-301200-
SOUTHWEST INDIANA

CITY           SKY/WX    TMP DP  RH WIND       PRES   REMARKS
EVANSVILLE     CLEAR     58  54  86 CALM      29.95R
WASHINGTON +   CLEAR     51  51 100 CALM      29.94S

$$

INZ062-063-066-070>080-084-089>092-301200-
SOUTH CENTRAL AND SOUTHEAST INDIANA

CITY           SKY/WX    TMP DP  RH WIND       PRES   REMARKS
BLOOMINGTON    CLEAR     57  52  83 CALM      29.96R

$$




USA.gov is the U.S. government's official web portal to all federal, state and local government web resources and services.